Time,TemperatureF,DewpointF,PressureIn,WindDirection,WindDirectionDegrees,WindSpeedMPH,WindSpeedGustMPH,Humidity,HourlyPrecipIn,Conditions,Clouds,dailyrainin,SoftwareType,DateUTC
2013-05-17 00:03:00,66.0,57.0,29.93,East,83,0.0,0.0,73,-99.99,,,-99.99,,2013-05-17 04:03:00,
2013-05-17 00:13:00,66.0,57.0,29.93,East,83,0.0,0.0,73,-99.99,,,-99.99,,2013-05-17 04:13:00,
2013-05-17 00:23:00,66.0,57.0,29.93,NE,44,0.0,0.0,74,-99.99,,,-99.99,,2013-05-17 04:23:00,
2013-05-17 00:33:00,66.0,57.0,29.93,ENE,70,1.0,0.0,74,-99.99,,,-99.99,,2013-05-17 04:33:00,
2013-05-17 00:43:00,66.0,57.0,29.93,ENE,70,1.0,0.0,74,-99.99,,,-99.99,,2013-05-17 04:43:00,
2013-05-17 00:53:00,66.0,57.0,29.93,NE,42,2.0,0.0,72,-99.99,,,-99.99,,2013-05-17 04:53:00,
2013-05-17 01:03:00,66.0,57.0,29.93,NE,42,2.0,0.0,72,-99.99,,,-99.99,,2013-05-17 05:03:00,
2013-05-17 01:14:00,66.0,57.0,29.93,NE,42,2.0,0.0,72,-99.99,,,-99.99,,2013-05-17 05:14:00,
2013-05-17 01:22:00,67.0,57.0,29.94,ESE,121,1.0,0.0,71,-99.99,,,-99.99,,2013-05-17 05:22:00,
2013-05-17 01:52:00,67.0,57.0,29.94,ENE,64,1.0,0.0,70,-99.99,,,-99.99,,2013-05-17 05:52:00,
2013-05-17 02:02:00,67.0,57.0,29.94,NE,51,1.0,0.0,70,-99.99,,,-99.99,,2013-05-17 06:02:00,
2013-05-17 02:11:00,67.0,57.0,29.94,NE,51,1.0,0.0,70,-99.99,,,-99.99,,2013-05-17 06:11:00,
2013-05-17 02:22:00,67.0,57.0,29.94,NE,51,1.0,0.0,70,-99.99,,,-99.99,,2013-05-17 06:22:00,
2013-05-17 02:32:00,67.0,57.0,29.94,NE,51,1.0,0.0,70,-99.99,,,-99.99,,2013-05-17 06:32:00,
2013-05-17 02:52:00,67.0,57.0,29.93,East,83,0.0,0.0,70,-99.99,,,-99.99,,2013-05-17 06:52:00,
2013-05-17 03:32:00,65.0,56.0,29.95,ESE,109,1.0,0.0,74,-99.99,,,-99.99,,2013-05-17 07:32:00,
2013-05-17 03:43:00,65.0,56.0,29.95,ESE,109,1.0,0.0,74,-99.99,,,-99.99,,2013-05-17 07:43:00,
2013-05-17 03:53:00,65.0,56.0,29.95,ESE,108,0.0,0.0,74,-99.99,,,-99.99,,2013-05-17 07:53:00,
2013-05-17 04:02:00,65.0,56.0,29.95,ESE,108,0.0,0.0,74,-99.99,,,-99.99,,2013-05-17 08:02:00,
2013-05-17 04:12:00,65.0,56.0,29.95,ESE,108,0.0,0.0,74,-99.99,,,-99.99,,2013-05-17 08:12:00,
2013-05-17 04:23:00,65.0,56.0,29.95,ESE,108,0.0,0.0,74,-99.99,,,-99.99,,2013-05-17 08:23:00,
2013-05-17 04:52:00,64.0,57.0,29.97,ESE,109,0.0,0.0,77,-99.99,,,-99.99,,2013-05-17 08:52:00,
2013-05-17 05:02:00,64.0,57.0,29.97,ENE,75,0.0,0.0,77,-99.99,,,-99.99,,2013-05-17 09:02:00,
2013-05-17 05:12:00,64.0,57.0,29.97,ENE,75,0.0,0.0,77,-99.99,,,-99.99,,2013-05-17 09:12:00,
2013-05-17 05:22:00,64.0,57.0,29.97,SE,132,0.0,0.0,78,-99.99,,,-99.99,,2013-05-17 09:22:00,
2013-05-17 05:33:00,64.0,57.0,29.97,SE,132,0.0,0.0,78,-99.99,,,-99.99,,2013-05-17 09:33:00,
2013-05-17 05:42:00,64.0,57.0,29.97,SE,132,0.0,0.0,78,-99.99,,,-99.99,,2013-05-17 09:42:00,
2013-05-17 05:53:00,64.0,57.0,29.97,SE,132,0.0,0.0,78,-99.99,,,-99.99,,2013-05-17 09:53:00,
2013-05-17 06:03:00,64.0,57.0,29.99,SE,137,0.0,0.0,78,-99.99,,,-99.99,,2013-05-17 10:03:00,
2013-05-17 06:12:00,64.0,57.0,29.99,SE,137,0.0,0.0,78,-99.99,,,-99.99,,2013-05-17 10:12:00,
2013-05-17 06:23:00,64.0,57.0,29.99,SE,137,0.0,0.0,78,-99.99,,,-99.99,,2013-05-17 10:23:00,
2013-05-17 06:33:00,64.0,57.0,30.00,ESE,117,1.0,0.0,78,-99.99,,,-99.99,,2013-05-17 10:33:00,
2013-05-17 06:42:00,64.0,57.0,30.00,ESE,117,1.0,0.0,78,-99.99,,,-99.99,,2013-05-17 10:42:00,
2013-05-17 06:54:00,64.0,57.0,30.00,ESE,110,0.0,0.0,79,-99.99,,,-99.99,,2013-05-17 10:54:00,
2013-05-17 07:02:00,64.0,57.0,30.00,ESE,110,0.0,0.0,79,-99.99,,,-99.99,,2013-05-17 11:02:00,
2013-05-17 07:12:00,64.0,57.0,30.00,ESE,110,0.0,0.0,79,-99.99,,,-99.99,,2013-05-17 11:12:00,
2013-05-17 07:23:00,63.0,57.0,30.01,SE,139,0.0,0.0,80,-99.99,,,-99.99,,2013-05-17 11:23:00,
2013-05-17 07:34:00,63.0,57.0,30.01,SE,141,1.0,0.0,80,-99.99,,,-99.99,,2013-05-17 11:34:00,
2013-05-17 07:42:00,63.0,57.0,30.01,SE,141,1.0,0.0,80,-99.99,,,-99.99,,2013-05-17 11:42:00,
2013-05-17 07:53:00,63.0,57.0,30.02,SE,141,0.0,0.0,81,-99.99,,,-99.99,,2013-05-17 11:53:00,
2013-05-17 08:03:00,63.0,57.0,30.02,SE,141,0.0,0.0,81,-99.99,,,-99.99,,2013-05-17 12:03:00,
2013-05-17 08:12:00,63.0,57.0,30.02,SE,141,0.0,0.0,81,-99.99,,,-99.99,,2013-05-17 12:12:00,
2013-05-17 08:23:00,65.0,58.0,30.03,East,92,0.0,0.0,79,-99.99,,,-99.99,,2013-05-17 12:23:00,
2013-05-17 08:33:00,65.0,58.0,30.03,ESE,103,0.0,0.0,79,-99.99,,,-99.99,,2013-05-17 12:33:00,
2013-05-17 08:43:00,65.0,58.0,30.03,ESE,103,0.0,0.0,79,-99.99,,,-99.99,,2013-05-17 12:43:00,
2013-05-17 08:53:00,65.0,58.0,30.03,ESE,103,0.0,0.0,79,-99.99,,,-99.99,,2013-05-17 12:53:00,
2013-05-17 09:03:00,66.0,59.0,30.04,SE,138,1.0,0.0,77,-99.99,,,-99.99,,2013-05-17 13:03:00,
2013-05-17 09:12:00,66.0,59.0,30.04,SE,138,1.0,0.0,77,-99.99,,,-99.99,,2013-05-17 13:12:00,
2013-05-17 09:23:00,68.0,59.0,30.04,SE,138,1.0,0.0,74,-99.99,,,-99.99,,2013-05-17 13:23:00,
2013-05-17 09:33:00,68.0,59.0,30.04,SE,138,0.0,0.0,74,-99.99,,,-99.99,,2013-05-17 13:33:00,
2013-05-17 09:42:00,68.0,59.0,30.04,SE,138,0.0,0.0,74,-99.99,,,-99.99,,2013-05-17 13:42:00,
2013-05-17 09:52:00,69.0,60.0,30.04,SE,138,0.0,0.0,73,-99.99,,,-99.99,,2013-05-17 13:52:00,
2013-05-17 10:02:00,70.0,61.0,30.04,SE,138,1.0,0.0,72,-99.99,,,-99.99,,2013-05-17 14:02:00,
2013-05-17 10:22:00,71.0,62.0,30.04,SSW,208,0.0,0.0,72,-99.99,,,-99.99,,2013-05-17 14:22:00,
2013-05-17 10:34:00,72.0,61.0,30.04,NNW,332,0.0,0.0,68,-99.99,,,-99.99,,2013-05-17 14:34:00,
2013-05-17 10:53:00,73.0,61.0,30.04,SSW,204,0.0,0.0,67,-99.99,,,-99.99,,2013-05-17 14:53:00,
2013-05-17 11:03:00,74.0,61.0,30.04,SSW,204,0.0,0.0,65,-99.99,,,-99.99,,2013-05-17 15:03:00,
2013-05-17 11:25:00,74.0,61.0,30.04,WSW,253,2.0,0.0,63,-99.99,,,-99.99,,2013-05-17 15:25:00,
2013-05-17 11:56:00,75.0,62.0,30.04,South,172,1.0,0.0,65,-99.99,,,-99.99,,2013-05-17 15:56:00,
2013-05-17 12:07:00,76.0,62.0,30.04,West,271,0.0,0.0,61,-99.99,,,-99.99,,2013-05-17 16:07:00,
2013-05-17 12:26:00,77.0,62.0,30.04,West,269,0.0,0.0,59,-99.99,,,-99.99,,2013-05-17 16:26:00,
2013-05-17 12:37:00,77.0,62.0,30.03,South,191,1.0,0.0,60,-99.99,,,-99.99,,2013-05-17 16:37:00,
2013-05-17 12:56:00,78.0,62.0,30.03,SW,216,0.0,0.0,59,-99.99,,,-99.99,,2013-05-17 16:56:00,
2013-05-17 13:30:00,79.0,61.0,30.02,NNW,331,1.0,0.0,55,-99.99,,,-99.99,,2013-05-17 17:30:00,
2013-05-17 13:40:00,79.0,-99.9,30.02,SW,228,1.0,0.0,54,-99.99,,,-99.99,,2013-05-17 17:40:00,
2013-05-17 14:00:00,80.0,-99.9,30.02,SSW,201,2.0,0.0,53,-99.99,,,-99.99,,2013-05-17 18:00:00,
2013-05-17 14:09:00,80.0,61.0,30.02,SSW,201,2.0,0.0,53,-99.99,,,-99.99,,2013-05-17 18:09:00,
2013-05-17 14:20:00,80.0,61.0,30.02,SSW,201,2.0,0.0,53,-99.99,,,-99.99,,2013-05-17 18:20:00,
2013-05-17 14:30:00,80.0,60.0,30.02,SW,216,1.0,0.0,50,-99.99,,,-99.99,,2013-05-17 18:30:00,
2013-05-17 14:40:00,80.0,-99.9,30.01,SW,224,0.0,0.0,53,-99.99,,,-99.99,,2013-05-17 18:40:00,
2013-05-17 14:50:00,-999.0,-99.9,30.01,SW,224,0.0,0.0,53,-99.99,,,-99.99,,2013-05-17 18:50:00,
2013-05-17 15:00:00,79.0,-99.9,30.01,SSE,163,2.0,0.0,52,-99.99,,,-99.99,,2013-05-17 19:00:00,
2013-05-17 15:10:00,79.0,59.0,30.01,South,184,2.0,0.0,51,-99.99,,,-99.99,,2013-05-17 19:10:00,
2013-05-17 15:20:00,79.0,59.0,30.01,South,184,2.0,0.0,51,-99.99,,,-99.99,,2013-05-17 19:20:00,
2013-05-17 15:30:00,80.0,59.0,30.01,South,179,2.0,0.0,49,-99.99,,,-99.99,,2013-05-17 19:30:00,
2013-05-17 15:40:00,80.0,60.0,30.01,SSE,167,0.0,0.0,51,-99.99,,,-99.99,,2013-05-17 19:40:00,
2013-05-17 15:51:00,80.0,60.0,30.01,SSE,167,0.0,0.0,51,-99.99,,,-99.99,,2013-05-17 19:51:00,
2013-05-17 16:00:00,80.0,-99.9,30.01,SSE,166,1.0,0.0,49,-99.99,,,-99.99,,2013-05-17 20:00:00,
2013-05-17 16:09:00,78.0,62.0,30.01,NE,49,0.0,0.0,58,-99.99,,,-99.99,,2013-05-17 20:09:00,
2013-05-17 16:20:00,78.0,62.0,30.01,NE,49,0.0,0.0,58,-99.99,,,-99.99,,2013-05-17 20:20:00,
2013-05-17 16:30:00,76.0,61.0,30.01,NE,46,2.0,0.0,59,-99.99,,,-99.99,,2013-05-17 20:30:00,
2013-05-17 16:40:00,76.0,61.0,30.01,NW,323,2.0,0.0,60,-99.99,,,-99.99,,2013-05-17 20:40:00,
2013-05-17 16:50:00,76.0,61.0,30.01,NW,323,2.0,0.0,60,-99.99,,,-99.99,,2013-05-17 20:50:00,
2013-05-17 16:58:00,75.0,62.0,30.01,NNE,28,0.0,0.0,63,-99.99,,,-99.99,,2013-05-17 20:58:00,
2013-05-17 17:07:00,78.0,62.0,30.00,WSW,243,0.0,0.0,58,-99.99,,,-99.99,,2013-05-17 21:07:00,
2013-05-17 17:26:00,79.0,62.0,30.00,SSW,208,0.0,0.0,56,-99.99,,,-99.99,,2013-05-17 21:26:00,
2013-05-17 17:39:00,78.0,62.0,30.00,SSW,197,0.0,0.0,58,-99.99,,,-99.99,,2013-05-17 21:39:00,
2013-05-17 17:57:00,78.0,62.0,30.00,SSW,195,0.0,0.0,59,-99.99,,,-99.99,,2013-05-17 21:57:00,
2013-05-17 18:07:00,77.0,61.0,30.01,SSW,195,0.0,0.0,58,-99.99,,,-99.99,,2013-05-17 22:07:00,
2013-05-17 18:28:00,76.0,62.0,30.01,NE,53,1.0,0.0,63,-99.99,,,-99.99,,2013-05-17 22:28:00,
2013-05-17 18:55:00,74.0,62.0,30.00,SE,140,0.0,0.0,66,-99.99,,,-99.99,,2013-05-17 22:55:00,
2013-05-17 19:37:00,74.0,62.0,30.00,SE,140,0.0,0.0,67,-99.99,,,-99.99,,2013-05-17 23:37:00,
2013-05-17 20:02:00,74.0,64.0,30.01,SE,139,0.0,0.0,70,-99.99,,,-99.99,,2013-05-18 00:02:00,
2013-05-17 20:22:00,72.0,62.0,30.01,SE,139,0.0,0.0,72,-99.99,,,-99.99,,2013-05-18 00:22:00,
2013-05-17 20:54:00,70.0,63.0,30.02,ESE,120,0.0,0.0,78,-99.99,,,-99.99,,2013-05-18 00:54:00,
2013-05-17 21:24:00,69.0,63.0,30.03,ESE,120,0.0,0.0,81,-99.99,,,-99.99,,2013-05-18 01:24:00,
2013-05-17 21:32:00,68.0,62.0,30.03,ESE,120,0.0,0.0,82,-99.99,,,-99.99,,2013-05-18 01:32:00,
2013-05-17 21:43:00,68.0,62.0,30.03,ESE,120,0.0,0.0,82,-99.99,,,-99.99,,2013-05-18 01:43:00,
2013-05-17 21:52:00,68.0,63.0,30.03,ESE,117,0.0,0.0,84,-99.99,,,-99.99,,2013-05-18 01:52:00,
2013-05-17 22:02:00,68.0,63.0,30.03,ESE,117,0.0,0.0,84,-99.99,,,-99.99,,2013-05-18 02:02:00,
2013-05-17 22:23:00,68.0,63.0,30.04,ESE,117,0.0,0.0,85,-99.99,,,-99.99,,2013-05-18 02:23:00,
2013-05-17 22:54:00,67.0,63.0,30.04,ESE,117,0.0,0.0,87,-99.99,,,-99.99,,2013-05-18 02:54:00,
2013-05-17 23:23:00,67.0,64.0,30.05,East,96,1.0,0.0,89,-99.99,,,-99.99,,2013-05-18 03:23:00,
2013-05-17 23:53:00,65.0,63.0,30.07,NE,52,0.0,0.0,94,-99.99,,,-99.99,,2013-05-18 03:53:00,